Wind_Speed
27 27 27 27 27 26 26 26 25 26 26 25 23 23 23 22 23 23 24 24 24 25 25 25 25 25 26 25 25 24 24 23 23
27 28 28 28 28 28 27 27 27 26 26 26 25 25 24 24 25 23 22 22 22 22 22 24 24 24 24 24 23 22 23 24 23
28 28 28 28 28 28 27 27 25 25 25 25 24 24 21 22 23 23 21 21 22 24 25 25 25 24 25 24 23 23 24 25 24
27 27 27 27 28 28 27 26 26 26 25 23 22 21 21 22 22 22 22 23 25 27 28 30 29 28 26 25 25 26 26 25 26
24 25 25 25 26 26 26 25 25 25 24 22 22 21 21 22 23 24 25 27 30 31 32 31 32 32 31 31 30 30 30 29 29
23 22 22 22 23 24 25 25 25 25 25 24 25 24 24 25 27 28 28 28 28 29 29 26 21 20 21 24 29 33 33 32 32
24 23 22 21 22 23 24 25 26 27 27 26 27 27 28 29 30 30 30 29 29 29 28 24 22 23 23 22 22 22 23 26 29
25 25 25 24 23 24 24 24 26 28 29 31 31 31 31 32 32 32 32 32 30 30 30 29 30 27 26 26 24 25 26 27 29
26 26 25 26 25 25 25 26 26 27 29 32 33 35 35 35 34 34 34 34 32 32 32 32 32 31 30 29 28 28 28 30 30
28 27 28 28 27 26 27 28 28 28 28 29 31 33 35 36 36 35 35 34 34 33 32 33 33 33 33 32 31 31 32 32 33
29 29 30 31 30 29 29 30 31 31 30 30 29 30 32 34 34 35 36 35 34 34 34 32 32 33 35 35 34 33 35 35 35
30 30 30 31 31 31 30 30 31 32 32 33 32 31 32 34 35 35 35 35 35 35 35 33 33 33 34 35 35 36 37 37 37
30 31 30 30 30 31 30 30 30 30 32 33 33 34 34 34 35 35 35 36 36 36 36 36 35 36 37 37 39 38 39 40 41
32 32 30 29 31 31 32 32 32 32 31 33 35 36 36 36 37 37 37 38 38 38 39 38 39 40 40 41 43 43 44 44 44
32 33 32 31 32 31 31 33 33 34 34 34 37 34 37 39 39 40 39 39 40 40 41 41 42 43 44 44 46 47 47 47 47
32 33 33 34 33 33 34 34 34 34 33 36 34 37 34 33 40 43 42 42 43 44 44 45 46 47 47 47 47 47 48 49 50
34 35 33 35 36 36 35 37 36 35 35 35 35 37 37 38 38 39 40 42 42 44 45 46 47 47 49 49 49 48 49 51 53
39 38 34 33 33 34 35 36 37 36 37 36 36 38 40 39 40 40 40 41 42 44 46 47 48 49 49 49 49 51 53 54 56
41 41 38 34 34 34 35 35 36 36 37 38 38 38 40 40 37 40 41 43 44 46 48 49 49 48 48 50 52 54 56 58 60
44 42 40 40 37 35 35 36 35 35 35 37 39 40 40 41 41 41 42 43 45 48 49 49 49 49 52 54 56 57 60 62 64
Wind_Direction
270 268 270 272 270 268 267 266 265 265 265 265 266 269 271 274 275 274 277 279 281 282 285 284 284 284 283 283 283 284 281 278 276
275 274 274 273 274 274 272 270 270 268 267 269 270 271 273 274 275 276 278 281 283 286 286 285 284 285 284 283 282 281 280 277 276
278 276 277 276 275 275 275 274 271 270 270 271 271 272 274 274 276 279 281 284 285 286 284 283 283 283 282 280 278 278 278 280 279
279 278 279 278 278 278 276 275 274 272 269 269 269 270 271 272 276 280 282 285 285 283 282 282 281 280 279 278 277 276 275 275 276
280 278 276 276 277 276 275 273 271 271 271 272 271 269 271 273 275 279 283 285 284 287 289 290 285 280 277 277 275 275 275 275 275
279 278 279 281 280 278 275 271 267 265 265 267 267 268 270 273 277 280 282 284 287 290 294 290 291 290 289 288 285 278 276 276 277
279 278 277 278 278 279 278 275 272 269 266 264 265 268 272 275 278 281 282 285 287 286 292 283 283 284 284 286 289 290 288 284 281
277 278 278 280 283 283 284 282 279 275 271 270 269 270 273 275 279 281 281 284 284 285 286 286 279 279 280 284 284 289 289 287 288
278 278 275 276 278 282 284 286 287 284 278 273 272 274 276 278 279 280 281 283 284 287 286 288 279 276 276 282 280 283 289 288 287
280 277 275 275 275 277 280 283 285 285 284 279 276 273 275 276 277 278 280 283 284 287 289 288 279 271 273 278 280 280 286 287 286
277 279 278 276 279 280 282 285 286 286 285 281 279 279 278 280 280 281 281 283 285 287 287 290 283 276 274 276 278 278 283 285 285
277 278 279 279 279 280 285 285 284 285 284 280 283 286 284 284 284 285 284 284 285 284 285 286 286 284 280 277 276 278 281 283 283
272 274 276 279 280 282 281 281 284 286 283 284 281 287 285 283 282 283 283 283 282 282 282 283 283 283 282 283 282 281 282 283 283
268 272 278 280 279 280 281 283 284 286 285 281 283 285 283 280 281 281 281 282 282 281 281 282 282 282 282 282 284 284 283 284 282
268 269 274 277 280 282 283 285 287 289 289 291 286 286 284 278 278 279 280 281 282 282 282 283 284 285 284 283 282 282 283 283 282
269 268 268 272 277 279 282 285 288 289 291 292 295 284 295 287 287 277 276 279 279 280 280 281 283 285 286 284 283 282 283 283 283
266 269 271 272 275 277 279 281 285 288 289 292 294 292 292 292 291 288 287 287 286 286 286 286 286 286 286 285 284 282 282 284 285
264 267 272 272 274 278 281 281 283 286 286 287 286 288 288 289 289 290 291 290 290 289 289 289 288 287 285 284 284 284 285 286 286
264 267 268 270 273 276 281 284 285 286 283 284 286 287 289 288 287 291 291 290 290 290 290 289 288 286 285 285 287 288 289 289 288
260 262 265 267 270 275 281 282 282 284 284 286 288 286 288 289 293 291 291 291 292 291 291 289 288 287 288 289 290 290 289 288 288
Height
5857 5857 5857 5857 5857 5857 5857 5857 5856 5856 5856 5856 5855 5855 5854 5854 5852 5852 5850 5850 5848 5846 5845 5845 5844 5843 5842 5841 5840 5840 5840 5840 5839
5853 5853 5854 5853 5853 5853 5852 5852 5852 5852 5852 5851 5851 5851 5850 5849 5848 5848 5847 5845 5843 5842 5841 5840 5839 5838 5838 5836 5836 5835 5835 5835 5834
5849 5849 5849 5849 5849 5849 5849 5848 5847 5846 5847 5847 5847 5846 5846 5845 5843 5843 5842 5841 5839 5838 5838 5836 5834 5833 5833 5832 5831 5830 5830 5831 5830
5845 5845 5845 5844 5844 5843 5843 5843 5843 5843 5843 5843 5842 5842 5841 5840 5840 5839 5837 5836 5835 5835 5833 5831 5829 5828 5827 5827 5826 5826 5826 5825 5825
5840 5840 5840 5840 5839 5839 5839 5839 5839 5839 5839 5839 5838 5837 5837 5836 5835 5834 5833 5832 5831 5829 5827 5824 5824 5823 5821 5821 5820 5820 5820 5819 5820
5836 5836 5836 5836 5836 5835 5835 5835 5834 5834 5834 5834 5834 5833 5832 5831 5830 5830 5829 5828 5826 5823 5821 5820 5818 5817 5815 5815 5814 5813 5814 5814 5813
5833 5833 5832 5832 5831 5831 5831 5830 5830 5830 5829 5829 5829 5828 5827 5826 5825 5824 5824 5822 5821 5818 5816 5815 5814 5813 5811 5810 5809 5809 5808 5807 5807
5829 5828 5828 5828 5827 5827 5827 5825 5825 5824 5823 5823 5824 5823 5822 5821 5820 5819 5818 5816 5815 5813 5811 5810 5809 5807 5806 5805 5805 5803 5803 5802 5801
5824 5823 5823 5822 5822 5822 5821 5821 5820 5819 5818 5818 5817 5816 5815 5815 5814 5812 5810 5809 5808 5807 5805 5803 5802 5801 5800 5800 5799 5797 5797 5795 5795
5819 5819 5818 5817 5816 5816 5816 5815 5814 5813 5812 5811 5811 5810 5808 5807 5806 5805 5803 5802 5801 5800 5798 5797 5795 5794 5794 5793 5793 5791 5790 5789 5788
5814 5813 5813 5812 5812 5811 5811 5809 5808 5806 5805 5804 5803 5803 5801 5800 5798 5797 5796 5794 5794 5793 5791 5790 5788 5788 5787 5786 5785 5784 5783 5781 5780
5809 5807 5807 5807 5806 5805 5805 5804 5802 5801 5799 5798 5797 5796 5794 5792 5791 5789 5788 5787 5786 5785 5784 5782 5781 5781 5780 5778 5777 5776 5774 5773 5771
5802 5801 5801 5801 5800 5799 5799 5798 5796 5794 5792 5791 5790 5789 5788 5786 5784 5783 5781 5780 5778 5777 5776 5774 5774 5773 5772 5770 5769 5768 5766 5764 5762
5795 5794 5794 5794 5793 5793 5792 5790 5788 5787 5785 5783 5782 5781 5780 5778 5777 5775 5774 5772 5770 5768 5767 5766 5765 5764 5762 5760 5759 5758 5756 5754 5752
5787 5787 5788 5787 5786 5786 5785 5783 5782 5780 5778 5776 5774 5772 5771 5769 5768 5767 5765 5763 5762 5760 5758 5756 5755 5753 5751 5750 5748 5746 5744 5742 5740
5779 5779 5780 5779 5779 5778 5777 5775 5774 5772 5771 5769 5766 5764 5762 5760 5759 5756 5755 5754 5752 5751 5749 5747 5744 5742 5740 5738 5737 5734 5732 5729 5727
5771 5771 5773 5772 5771 5770 5769 5768 5767 5765 5763 5761 5759 5757 5756 5753 5751 5749 5747 5745 5742 5740 5737 5735 5733 5730 5728 5726 5724 5721 5719 5716 5714
5763 5763 5764 5763 5763 5763 5762 5761 5759 5757 5755 5753 5751 5749 5747 5745 5742 5740 5737 5735 5732 5729 5726 5723 5721 5718 5715 5713 5710 5708 5706 5702 5699
5756 5755 5755 5755 5755 5755 5754 5752 5751 5749 5747 5745 5743 5740 5739 5736 5734 5731 5729 5725 5722 5718 5715 5711 5709 5706 5703 5700 5697 5694 5690 5687 5684
5747 5746 5746 5748 5747 5746 5745 5744 5743 5741 5739 5736 5734 5732 5730 5727 5724 5722 5719 5715 5711 5707 5702 5699 5696 5693 5690 5687 5683 5680 5676 5672 5667